Weather History for Stuart, FL

Change the Weather History Date:

Tuesday, November 1, 2011

  Actual Average Record
Temperature  
Mean Temperature 73 °F -  
Max Temperature 80 °F 82 °F 90 °F (1951)
Min Temperature 66 °F 65 °F 41 °F (1993)
Cooling Degree Days 8    
Growing Degree Days 23 (Base 50)    
Moisture  
Dew Point 66 °F    
Average Humidity 83    
Maximum Humidity 100    
Minimum Humidity 65    
Precipitation  
Precipitation 0.00 in - - ()
Sea Level Pressure  
Sea Level Pressure 30.06 in    
Wind  
Wind Speed 10 mph (North)    
Max Wind Speed 17 mph    
Max Gust Speed 25 mph    
Visibility 10 miles    
Events Rain    
Averages and records for this station are not official NWS values.
T = Trace of Precipitation, MM = Missing Value Source: NWS Daily Summary

Daily Weather History Graph

Daily Weather History Graph

Search for Another Location

Airport:

Trip Planner

Search our weather history database for the weather conditions in past years. The results will help you decide how hot, cold, wet, or windy it might be!

Date:

Astronomy

Nov. 01, 2011 Rise Set
Actual Time 7:30 AM EDT 6:37 PM EDT
Civil Twilight 7:06 AM EDT 7:01 PM EDT
Nautical Twilight 6:39 AM EDT 7:29 PM EDT
Astronomical Twilight 6:11 AM EDT 7:56 PM EDT
Moon 1:10 PM EDT (11/1) No Moon Set
Length of Visible Light 11h 54m
Length of Day
11h 06m
Waxing Crescent, 39% of the Moon is Illuminated
Nov 1
Waxing Crescent
Nov 2
First Quarter
Nov 10
Full
Nov 18
Last Quarter
Nov 25
New

Hourly Weather History & Observations

Time (EDT) Temp. Heat Index Dew Point Humidity Pressure Visibility Wind Dir Wind Speed Gust Speed Precip Events Conditions
12:15 AM 68.0 °F - 66.2 °F 94% 30.02 in 10.0 mi NW 6.9 mph - N/A   Scattered Clouds
12:35 AM 68.0 °F - 66.2 °F 94% 30.02 in 10.0 mi NW 5.8 mph - N/A   Scattered Clouds
12:55 AM 68.0 °F - 66.2 °F 94% 30.02 in 10.0 mi NW 4.6 mph - N/A   Scattered Clouds
1:15 AM 68.0 °F - 66.2 °F 94% 30.02 in 10.0 mi NW 4.6 mph - N/A   Clear
1:35 AM 66.2 °F - 66.2 °F 100% 30.02 in 10.0 mi NW 4.6 mph - N/A   Clear
1:55 AM 66.2 °F - 66.2 °F 100% 30.02 in 10.0 mi NW 3.5 mph - N/A   Clear
2:15 AM 66.2 °F - 64.4 °F 94% 30.02 in 10.0 mi NW 8.1 mph - N/A   Scattered Clouds
2:35 AM 66.2 °F - 64.4 °F 94% 30.02 in 10.0 mi NNW 6.9 mph - N/A   Scattered Clouds
2:55 AM 66.2 °F - 66.2 °F 100% 30.02 in 10.0 mi NNW 8.1 mph - N/A   Mostly Cloudy
3:15 AM 66.2 °F - 66.2 °F 100% 30.02 in 10.0 mi NNW 8.1 mph - N/A   Mostly Cloudy
3:35 AM 68.0 °F - 66.2 °F 94% 30.02 in 7.0 mi NNW 9.2 mph - N/A   Scattered Clouds
3:55 AM 68.0 °F - 66.2 °F 94% 30.02 in 10.0 mi NNW 5.8 mph - N/A   Mostly Cloudy
4:15 AM 68.0 °F - 68.0 °F 100% 30.02 in 10.0 mi NNW 8.1 mph - N/A   Mostly Cloudy
4:35 AM 69.8 °F - 68.0 °F 94% 30.02 in 10.0 mi North 16.1 mph 23.0 mph N/A   Mostly Cloudy
4:55 AM 69.8 °F - 68.0 °F 94% 30.02 in 10.0 mi North 9.2 mph 19.6 mph N/A   Overcast
5:15 AM 69.8 °F - 68.0 °F 94% 30.02 in 10.0 mi North 12.7 mph 16.1 mph N/A   Overcast
5:35 AM 69.8 °F - 68.0 °F 94% 30.02 in 10.0 mi North 11.5 mph 18.4 mph N/A   Mostly Cloudy
5:55 AM 69.8 °F - 68.0 °F 94% 30.02 in 10.0 mi North 9.2 mph - N/A   Mostly Cloudy
6:15 AM 69.8 °F - 68.0 °F 94% 30.03 in 10.0 mi North 8.1 mph 19.6 mph N/A   Scattered Clouds
6:47 AM 71.6 °F - 68.0 °F 88% 30.03 in 7.0 mi North 13.8 mph 20.7 mph N/A   Scattered Clouds
7:47 AM 71.6 °F - 68.0 °F 88% 30.04 in 7.0 mi North 13.8 mph 23.0 mph N/A   Mostly Cloudy
8:47 AM 71.6 °F - 68.0 °F 88% 30.05 in 6.0 mi North 16.1 mph 25.3 mph N/A Rain Rain Showers
9:47 AM 73.4 °F - 68.0 °F 83% 30.07 in 7.0 mi North 11.5 mph 20.7 mph N/A   Mostly Cloudy
10:55 AM 77.0 °F - 68.0 °F 74% 30.09 in 7.0 mi NNE 13.8 mph 23.0 mph N/A   Mostly Cloudy
11:47 AM 80.6 °F 83.2 °F 68.0 °F 65% 30.09 in 7.0 mi NE 16.1 mph 25.3 mph N/A   Mostly Cloudy
12:47 PM 78.8 °F - 66.2 °F 65% 30.09 in 10.0 mi NE 17.3 mph 24.2 mph N/A   Mostly Cloudy
1:47 PM 78.8 °F - 66.2 °F 65% 30.07 in 10.0 mi NNE 15.0 mph 24.2 mph N/A   Scattered Clouds
2:55 PM 78.8 °F - 66.2 °F 65% 30.06 in 10.0 mi NE 16.1 mph 23.0 mph N/A   Scattered Clouds
3:47 PM 77.0 °F - 66.2 °F 69% 30.07 in 10.0 mi NNE 17.3 mph 23.0 mph N/A   Mostly Cloudy
4:47 PM 77.0 °F - 66.2 °F 69% 30.07 in 10.0 mi NNE 10.4 mph 24.2 mph N/A   Mostly Cloudy
5:55 PM 75.2 °F - 64.4 °F 69% 30.08 in 10.0 mi NNE 10.4 mph 24.2 mph N/A   Mostly Cloudy
6:47 PM 73.4 °F - 64.4 °F 73% 30.10 in 10.0 mi NNE 13.8 mph 18.4 mph N/A   Mostly Cloudy
8:15 PM 73.4 °F - 64.4 °F 73% 30.11 in 10.0 mi NNE 16.1 mph 21.9 mph N/A   Overcast
8:35 PM 73.4 °F - 62.6 °F 69% 30.12 in 10.0 mi NNE 16.1 mph 24.2 mph N/A   Overcast
8:55 PM 73.4 °F - 62.6 °F 69% 30.12 in 10.0 mi NNE 12.7 mph 20.7 mph N/A   Overcast
9:15 PM 73.4 °F - 62.6 °F 69% 30.13 in 10.0 mi NNE 15.0 mph 23.0 mph N/A   Overcast
9:35 PM 73.4 °F - 62.6 °F 69% 30.13 in 10.0 mi NE 13.8 mph 23.0 mph N/A   Overcast
9:55 PM 73.4 °F - 62.6 °F 69% 30.13 in 10.0 mi NNE 17.3 mph 24.2 mph N/A   Overcast
10:35 PM 73.4 °F - 62.6 °F 69% 30.13 in 10.0 mi NNE 13.8 mph 21.9 mph N/A   Scattered Clouds
10:55 PM 73.4 °F - 62.6 °F 69% 30.13 in 10.0 mi NNE 12.7 mph 20.7 mph N/A   Overcast
11:15 PM 73.4 °F - 62.6 °F 69% 30.14 in 10.0 mi NNE 15.0 mph 19.6 mph N/A   Overcast
11:35 PM 73.4 °F - 62.6 °F 69% 30.13 in 10.0 mi NE 12.7 mph 17.3 mph N/A   Overcast